Weather History for Ottumwa, IA

Change the Weather History Date:

Monday, July 1, 2013

  Actual Average Record
Temperature  
Mean Temperature 68 °F 75 °F  
Max Temperature 81 °F 85 °F 103 °F (1911)
Min Temperature 54 °F 64 °F 49 °F (1924)
Degree Days  
Heating Degree Days 0 0  
Month to date heating degree days 0 0  
Since 1 June heating degree days 26 21  
Since 1 July heating degree days 0 0  
Cooling Degree Days 3 10  
Month to date cooling degree days 3 10  
Year to date cooling degree days 278 275  
Since 1 June cooling degree days 201 211  
Growing Degree Days 17 (Base 50)    
Moisture  
Dew Point 51 °F    
Average Humidity 63    
Maximum Humidity 93    
Minimum Humidity 33    
Precipitation  
Precipitation 0.00 in 0.16 in 1.61 in (1915)
Month to date precipitation 0.00 0.16  
Year to date precipitation 26.14 17.78  
Sea Level Pressure  
Sea Level Pressure 30.08 in    
Wind  
Wind Speed 10 mph (NNE)    
Max Wind Speed 21 mph    
Max Gust Speed 26 mph    
Visibility 10 miles    
Events      
T = Trace of Precipitation, MM = Missing Value Source: NWS Daily Summary

Daily Weather History Graph

Daily Weather History Graph

Search for Another Location

Airport:

Trip Planner

Search our weather history database for the weather conditions in past years. The results will help you decide how hot, cold, wet, or windy it might be!

Date:

Astronomy

Jul. 01, 2013 Rise Set
Actual Time 5:41 AM CDT 8:46 PM CDT
Civil Twilight 5:07 AM CDT 9:19 PM CDT
Nautical Twilight 4:24 AM CDT 10:02 PM CDT
Astronomical Twilight 3:34 AM CDT 10:52 PM CDT
Moon 1:13 AM CDT 3:00 PM CDT
Length of Visible Light 16h 11m
Length of Day
15h 04m
Waning Crescent, 35% of the Moon is Illuminated
Jul 1
Waning Crescent
Jul 8
New
Jul 15
First Quarter
Jul 22
Full
Jul 29
Last Quarter

Hourly Weather History & Observations

Time (CDT) Temp. Dew Point Humidity Pressure Visibility Wind Dir Wind Speed Gust Speed Precip Events Conditions
12:53 AM 63.0 °F 54.0 °F 72% 30.05 in 10.0 mi North 8.1 mph - N/A   Clear
1:53 AM 61.0 °F 53.1 °F 75% 30.05 in 10.0 mi North 5.8 mph - N/A   Clear
2:53 AM 60.1 °F 52.0 °F 75% 30.05 in 10.0 mi North 8.1 mph - N/A   Clear
3:53 AM 55.0 °F 51.1 °F 86% 30.05 in 10.0 mi North 6.9 mph - N/A   Clear
4:53 AM 55.0 °F 51.1 °F 86% 30.06 in 10.0 mi North 8.1 mph - N/A   Clear
5:53 AM 54.0 °F 51.1 °F 90% 30.07 in 10.0 mi North 8.1 mph - N/A   Clear
6:53 AM 57.0 °F 53.1 °F 87% 30.08 in 10.0 mi North 8.1 mph - N/A   Clear
7:53 AM 64.9 °F 53.1 °F 65% 30.09 in 10.0 mi North 8.1 mph - N/A   Clear
8:53 AM 70.0 °F 53.1 °F 55% 30.10 in 10.0 mi NNE 9.2 mph - N/A   Clear
9:53 AM 73.9 °F 50.0 °F 43% 30.10 in 10.0 mi NNE 12.7 mph - N/A   Clear
10:53 AM 75.0 °F 48.0 °F 38% 30.10 in 10.0 mi NE 13.8 mph - N/A   Clear
11:53 AM 77.0 °F 48.9 °F 37% 30.10 in 10.0 mi NNE 16.1 mph 19.6 mph N/A   Clear
12:53 PM 78.1 °F 51.1 °F 39% 30.09 in 10.0 mi NNE 15.0 mph - N/A   Clear
1:53 PM 78.1 °F 50.0 °F 37% 30.08 in 10.0 mi NNE 16.1 mph 25.3 mph N/A   Clear
2:53 PM 80.1 °F 48.9 °F 34% 30.07 in 10.0 mi NNE 13.8 mph 26.5 mph N/A   Clear
3:53 PM 80.1 °F 48.9 °F 34% 30.07 in 10.0 mi NE 17.3 mph 24.2 mph N/A   Clear
4:53 PM 79.0 °F 48.9 °F 35% 30.07 in 10.0 mi NE 13.8 mph - N/A   Clear
5:53 PM 78.1 °F 48.9 °F 36% 30.07 in 10.0 mi NE 12.7 mph 24.2 mph N/A   Clear
6:53 PM 77.0 °F 48.9 °F 37% 30.07 in 10.0 mi NNE 10.4 mph - N/A   Clear
7:53 PM 75.0 °F 50.0 °F 41% 30.07 in 10.0 mi NE 11.5 mph - N/A   Clear
8:53 PM 69.1 °F 54.0 °F 58% 30.07 in 10.0 mi North 5.8 mph - N/A   Clear
9:53 PM 66.9 °F 54.0 °F 63% 30.09 in 10.0 mi North 5.8 mph - N/A   Clear
10:53 PM 66.0 °F 54.0 °F 65% 30.09 in 10.0 mi NNE 4.6 mph - N/A   Clear
11:53 PM 62.1 °F 54.0 °F 75% 30.09 in 10.0 mi North 4.6 mph - N/A   Clear